Flag for Spain Weather past 2 weeks in Santander, Spain

Now
68 °F

Partly sunny.


Feels Like: 68 °F
Forecast: 64 / 73 °F
Wind: 12 mph from East

Location: Santander / Parayas

Current Time: Aug 4, 2015 at 8:16:16 PM

Latest Report: Aug 4, 2015 at 7:30 PM


Visibility: N/A

Pressure: 30.04 "Hg

Humidity: 78%

Dew point: 61 °F

Location of SantanderLocation

Historic Weather in Santander — Graph

°F

Santander temperature yesterday

Maximum temperature yesterday: 73 °F (at 2:00 PM)
Minimum temperature yesterday: 61 °F (at 6:30 AM)
Average temperature yesterday: 69 °F

Past Weeks' High & Low Weather Summary

 TemperatureHumidityPressure
High84 °F (Aug 2, 5:00 PM)100% (Jul 22, 6:00 AM)30.18 "Hg (Jul 22, 6:00 AM)
Low55 °F (Aug 1, 5:30 AM)26% (Jul 26, 1:00 PM)29.83 "Hg (Aug 2, 3:30 PM)
Average68 °F77%30.02 "Hg
* Reported Jul 20 7:00 PM — Aug 4 7:00 PM, Santander, Weather by CustomWeather, © 2015

Note: Actual official high and low records may vary slightly from our data, if they occured in-between our weather recording intervals... More about our weather records

Advertising

Santander weather history for previous 24 hours

 ConditionsComfort  
Time TempWeatherWind HumidityBarometerVisibility
7:00 PM
Tue, Aug 4
70 °FPartly sunny.9 mph69%30.04 "HgN/A
6:30 PM70 °FBroken clouds.12 mph73%30.07 "HgN/A
6:00 PM70 °FOvercast.7 mph73%30.07 "HgN/A
5:30 PM68 °FOvercast.9 mph78%30.07 "HgN/A
5:00 PM68 °FOvercast.12 mph78%30.07 "HgN/A
4:30 PM68 °FOvercast.7 mph78%30.09 "HgN/A
4:00 PM68 °FOvercast.8 mph78%30.09 "HgN/A
3:30 PM68 °FOvercast.6 mph78%30.09 "HgN/A
3:00 PM68 °FOvercast.5 mph78%30.09 "HgN/A
2:30 PM68 °FMore clouds than sun.5 mph73%30.09 "HgN/A
2:00 PM68 °FPartly sunny.3 mph73%30.12 "HgN/A
1:30 PM68 °FPartly sunny.3 mph73%30.12 "HgN/A
1:00 PM68 °FPartly sunny.2 mph73%30.12 "HgN/A
12:30 PM68 °FBroken clouds.No wind73%30.12 "HgN/A
12:00 PM68 °FBroken clouds.No wind78%30.12 "HgN/A
11:30 AM66 °FPartly sunny.No wind83%30.12 "HgN/A
11:00 AM64 °FBroken clouds.2 mph88%30.12 "HgN/A
10:30 AM64 °FBroken clouds.5 mph88%30.12 "HgN/A
10:00 AM63 °FPartly sunny.6 mph94%30.12 "HgN/A
9:30 AM63 °FMore clouds than sun.6 mph94%30.12 "Hg6 mi
9:00 AM63 °FPartly sunny.3 mph94%30.12 "Hg6 mi
8:30 AM63 °FDrizzle. Fog.2 mph94%30.12 "Hg2 mi
8:00 AM61 °FDrizzle. Fog.No wind100%30.12 "Hg2 mi
7:30 AM63 °FDrizzle. Fog.3 mph94%30.12 "Hg2 mi
7:00 AM63 °FDrizzle. Fog.2 mph94%30.12 "Hg2 mi
6:30 AM63 °FDrizzle. Fog.3 mph94%30.09 "Hg2 mi
6:00 AM63 °FPartly cloudy.7 mph94%30.09 "HgN/A
5:30 AM63 °FPartly cloudy.5 mph94%30.09 "Hg4 mi
11:00 PM
Mon, Aug 3
70 °FPassing clouds.No wind78%30.04 "HgN/A
10:30 PM70 °FPartly sunny.No wind78%30.04 "HgN/A
10:00 PM70 °FPartly sunny.No wind73%30.04 "HgN/A
9:30 PM70 °FPartly sunny.No wind78%30.01 "HgN/A
9:00 PM72 °FScattered clouds.No wind73%30.01 "HgN/A
8:30 PM72 °FPassing clouds.2 mph73%30.01 "HgN/A
8:00 PM72 °FSunny.2 mph73%30.01 "Hg10 mi
Weather by CustomWeather, © 2015

See weather overviewHow to use our weather pages